CDT,Max TemperatureF,Mean TemperatureF,Min TemperatureF,Max Dew PointF,MeanDew PointF,Min DewpointF,Max Humidity, Mean Humidity, Min Humidity, Max Sea Level PressureIn, Mean Sea Level PressureIn, Min Sea Level PressureIn, Max VisibilityMiles, Mean VisibilityMiles, Min VisibilityMiles, Max Wind SpeedMPH, Mean Wind SpeedMPH, Max Gust SpeedMPH,PrecipitationIn, CloudCover, Events, WindDirDegrees
2012-6-1,91,76,61,56,53,46,67,48,28,29.99,29.90,29.77,10,10,10,18,10,24,0.00,1,,151
2012-6-2,97,83,68,64,61,55,78,55,31,29.87,29.80,29.71,10,10,10,21,11,26,0.00,0,,172
2012-6-3,97,84,70,69,65,61,84,57,30,29.82,29.77,29.72,10,10,10,28,14,35,0.00,0,,173
2012-6-4,96,84,71,70,65,61,84,58,31,29.82,29.77,29.70,10,10,10,24,10,30,0.00,0,,152
2012-6-5,94,82,69,62,59,55,78,54,30,29.87,29.78,29.69,10,10,10,20,6,29,0.00,1,,28
2012-6-6,85,77,68,65,62,58,87,64,40,29.83,29.77,29.72,10,10,8,24,6,31,0.02,3,Rain,36
2012-6-7,79,71,63,68,65,62,97,81,64,30.02,29.93,29.79,10,9,1,15,8,18,1.41,7,Rain-Thunderstorm,96
2012-6-8,84,76,68,66,64,61,93,70,47,30.05,29.95,29.82,10,9,6,14,7,17,0.00,6,,95
2012-6-9,93,80,66,68,66,64,100,71,41,29.84,29.72,29.60,10,9,5,24,15,32,0.00,0,,152
2012-6-10,102,88,74,71,66,58,74,50,25,29.67,29.63,29.60,10,10,10,25,15,30,0.00,0,,166
2012-6-11,105,88,70,69,64,58,69,46,22,29.98,29.78,29.68,10,10,4,37,13,52,0.22,1,Rain-Thunderstorm,180
2012-6-12,85,77,68,72,65,60,79,64,48,30.10,29.96,29.86,10,10,10,29,13,40,0.00,2,,110
2012-6-13,96,81,66,71,64,59,93,62,31,30.04,29.87,29.76,10,10,10,33,13,41,T,1,,154
2012-6-14,94,85,75,69,68,64,82,62,41,29.83,29.77,29.72,10,10,10,26,16,32,0.00,0,,157
2012-6-15,95,83,71,70,64,59,79,57,34,29.90,29.85,29.79,10,10,10,29,14,33,0.00,0,,142
2012-6-16,95,81,67,66,63,60,79,55,31,30.11,29.95,29.86,10,9,2,37,11,51,0.46,2,Rain,149
2012-6-17,91,80,68,69,67,63,93,72,50,29.99,29.90,29.78,10,10,10,29,11,35,T,1,Rain,175
2012-6-18,94,82,69,69,65,60,79,60,41,29.74,29.70,29.64,10,10,10,28,17,37,0.00,0,,169
2012-6-19,92,82,72,68,66,63,84,61,38,29.83,29.72,29.68,10,10,10,29,21,39,0.00,1,,160
2012-6-20,93,83,73,70,67,63,87,63,38,29.88,29.80,29.76,10,10,10,29,20,39,0.00,2,,156
2012-6-21,93,82,71,69,66,61,93,66,38,30.01,29.94,29.88,10,10,10,18,9,23,0.00,1,,146
2012-6-22,95,83,71,66,63,58,79,55,30,30.03,29.92,29.84,10,10,10,18,7,24,0.00,0,,143
2012-6-23,96,83,70,63,60,56,73,51,28,29.89,29.86,29.82,10,10,10,18,9,24,0.00,1,,148
2012-6-24,99,85,71,63,59,56,64,44,24,29.96,29.90,29.85,10,10,10,17,8,22,0.00,0,,160
2012-6-25,102,87,71,62,58,52,68,43,18,29.93,29.86,29.80,10,10,10,17,7,22,0.00,0,,135
2012-6-26,106,88,70,61,56,47,68,41,14,29.84,29.78,29.71,10,10,10,18,6,22,0.00,0,,158
2012-6-27,104,90,75,64,59,53,56,38,19,29.86,29.81,29.76,10,10,10,21,10,26,0.00,0,,146
2012-6-28,99,90,80,63,59,55,54,39,24,29.98,29.92,29.86,10,10,10,21,12,26,0.00,0,,151
2012-6-29,98,87,75,64,58,53,60,41,22,29.96,29.88,29.79,10,10,10,23,12,26,0.00,0,,163
2012-6-30,98,86,74,69,63,57,84,56,27,29.85,29.81,29.75,10,10,10,24,13,33,0.00,0,,150